Flag for Kenya Weather past 2 weeks in Nairobi, Kenya

Now
61 °F

Partly cloudy.


Feels Like: 61 °F
Forecast: 60 / 72 °F
Wind: No wind

Location: Nairobi / Dagoretti

Current Time: May 30, 2015 at 2:04:28 AM

Latest Report: May 30, 2015 at 12:00 AM


Visibility: N/A

Pressure: 30.21 "Hg

Humidity: 94%

Dew point: 59 °F

Location of NairobiLocation

Historic Weather in Nairobi — Graph

°F

Nairobi temperature yesterday

Maximum temperature yesterday: 70 °F (at 1:00 PM)
Minimum temperature yesterday: 61 °F (at 2:00 AM)
Average temperature yesterday: 64 °F

Past Weeks' High & Low Weather Summary

 TemperatureHumidityPressure
High77 °F (May 15, 4:00 PM)100% (May 15, 7:00 AM)30.30 "Hg (May 15, 7:00 AM)
Low37 °F (May 22, 6:00 PM)47% (May 15, 4:00 PM)30.15 "Hg (May 16, 5:00 PM)
Average65 °F80%30.23 "Hg
* Reported Midnight between May 14 and May 15 — Midnight between May 29 and May 30, Nairobi, Weather by CustomWeather, © 2015

Note: Actual official high and low records may vary slightly from our data, if they occured in-between our weather recording intervals... More about our weather records

Advertising

Nairobi weather history for previous 24 hours

 ConditionsComfort  
Time TempWeatherWind HumidityBarometerVisibility
12:00 AM
Sat, May 30
61 °FPartly cloudy.No wind94%30.21 "HgN/A
10:00 PM
Fri, May 29
61 °FPartly cloudy.No wind94%30.21 "HgN/A
9:00 PM61 °FPartly cloudy.No wind94%30.21 "HgN/A
6:00 PM68 °FBroken clouds.6 mph69%30.15 "HgN/A
5:00 PM68 °FBroken clouds.9 mph64%30.15 "HgN/A
4:00 PM70 °FMild.No wind60%30.15 "HgN/A
2:00 PM70 °FBroken clouds.3 mph64%30.18 "HgN/A
1:00 PM70 °FBroken clouds.3 mph64%30.21 "HgN/A
12:00 PM66 °FPartly sunny.6 mph78%30.24 "HgN/A
11:00 AM63 °FPartly sunny.5 mph83%30.24 "HgN/A
10:00 AM64 °FBroken clouds.No wind83%30.24 "HgN/A
9:00 AM64 °FPartly sunny.No wind78%30.21 "HgN/A
8:00 AM61 °FPartly sunny.No wind94%30.21 "HgN/A
7:00 AM61 °FPartly sunny.No wind94%30.18 "HgN/A
6:00 AM61 °FPassing clouds.No wind94%30.18 "HgN/A
5:00 AM61 °FPassing clouds.9 mph94%30.18 "HgN/A
3:00 AM61 °FPassing clouds.3 mph94%30.18 "HgN/A
2:00 AM61 °FPassing clouds.No wind94%30.18 "HgN/A
Weather by CustomWeather, © 2015

See weather overviewHow to use our weather pages